Regional Weather Roundup
Issued by NWS

Home | Current Version | Previous Version | Text Only | Print | Product List | Glossary Off
Versions: 1 2 3 4 5 6 7 8 9 10 11 12 13 14 15 16 17 18 19 20 21 22 23 24 25 26 27 28

000
ASUS45 KCYS 240110
RWRWY

WYOMING REGIONAL WEATHER ROUNDUP
NATIONAL WEATHER SERVICE CHEYENNE WY
700 PM MDT SAT JUL 23 2016

NOTE:  "FAIR" INDICATES FEW OR NO CLOUDS BELOW 12,000 FEET
WITH NO SIGNIFICANT WEATHER AND/OR OBSTRUCTIONS TO VISIBILITY.

WYZ001-240200-
YELLOWSTONE NATIONAL PARK

CITY           SKY/WX    TMP DP  RH WIND       PRES   REMARKS
LK YELLOWSTONE   N/A     67  21  17 VRB6      30.30S
W YELLOWSTONE  NOT AVBL

$$
WYZ002>013-054>058-071-098>099-240200-
NORTHERN WYOMING

CITY           SKY/WX    TMP DP  RH WIND       PRES   REMARKS
JACKSON        SUNNY     77  21  12 SW13      30.18F
CODY           FAIR      79  36  21 N13       30.08R
GREYBULL       FAIR      88  30  12 N12G21    29.95F
WORLAND        FAIR      84  38  19 N7        29.96S
SHERIDAN       FAIR      84  34  16 N12       30.03R
BUFFALO        FAIR      81  33  17 N14       30.09S
GILLETTE       FAIR      81  38  21 N9        30.03S
HULETT         FAIR      82  32  16 N7        30.04S
NEWCASTLE      FAIR      86  32  14 NW15G21   30.00S

$$
WYZ014>020-022>026-101>103-240200-
CENTRAL WYOMING

CITY           SKY/WX    TMP DP  RH WIND       PRES   REMARKS
BIG PINEY      FAIR      79  24  13 NW15      30.22S
PINEDALE       FAIR      77  25  14 NW14      30.23S
DUBOIS         FAIR      75  21  13 NW18      30.19S
LANDER         FAIR      88  20   8 W14       30.03R
RIVERTON       FAIR      88  17   7 N10       30.03S
CASPER         FAIR      88  28  11 N12       30.03R
DOUGLAS          N/A    N/A N/A N/A MISG      30.02R

$$
WYZ021-027>030-104>119-240200-
SOUTHERN WYOMING

CITY           SKY/WX    TMP DP  RH WIND       PRES   REMARKS
EVANSTON       FAIR      80  15   8 W21G26    30.25S
KEMMERER         N/A    N/A N/A N/A W16       30.25S
FORT BRIDGER   FAIR      82  10   6 NW16G26   30.25S
ROCK SPRINGS   FAIR      84  13   7 W20       30.17S
DIXON          FAIR      87  32  14 CALM      30.18S
RAWLINS        FAIR      85  12   6 W21G29    30.17S
SARATOGA       FAIR      81  32  17 SW8       30.21S
LARAMIE        FAIR      80  30  16 W14       30.21R
CHEYENNE       FAIR      76  47  35 SE7       30.11F
TORRINGTON     FAIR      89  35  14 NE16G22   29.96R
PINE BLUFFS    FAIR      72  55  56 S6        30.07R

$$




USA.gov is the U.S. government's official web portal to all federal, state and local government web resources and services.